Location: Sungai Bunut
(2.6333°N, 113.7333°E)
Time: 10:15:43
(UTC+00:00)

Transit 2A - Pass Details

Date: 06 December 2023
Orbit: 599 x 953 km, 66.7° (Epoch: 01 March)

Event Time Altitude Azimuth Distance (km) Brightness Sun altitude
Rises 18:15:35 0° 329° (NNW) 2,936 - -54.9°
Reaches altitude 10° 18:17:50 10° 323° (NW) 2,070 - -54.4°
Maximum altitude 18:22:19 46° 249° (WSW) 942 - -53.5°
Drops below altitude 10° 18:27:16 10° 177° (S) 2,282 - -52.5°
Sets 18:29:52 0° 171° (S) 3,273 - -52.0°
